CO-66
1 32791U 08021J 13169.12305263 .00000997 00000-0 12398-3 0 6375
2 32791 097.7530 227.0244 0013638 303.4388 114.5685 14.84666771278014
RS-30
1 32953U 08025A 13169.26791438 .00000010 00000-0 00000 0 0 9560
2 32953 082.5028 067.5219 0017467 229.3823 130.5745 12.43034511230041
METEOR-M
1 35865U 09049A 13182.44039413 .00000037 00000-0 16724-4 0 5521
2 35865 098.6027 234.5158 0002945 040.7477 319.4530 14.21889044196493
RS-38
1 35869U 09049E 13169.17381593 .00000018 00000-0 27341-4 0 5110
2 35869 098.5952 221.4878 0005536 071.6918 288.4860 14.22132880194634
JUGNU
1 37839U 11058B 13167.81638418 .00000338 00000-0 38512-4 0 4084
2 37839 019.9619 309.0345 0019086 279.9294 203.2144 14.12161098 86842
SRMSAT
1 37841U 11058D 13168.79708756 .00000326 00000-0 34491-4 0 4111
2 37841 019.9725 315.1596 0011757 244.2206 255.9267 14.10230216 86863
RAX-2
1 37853U 11061D 13169.19089973 .00003275 00000-0 25237-3 0 5301
2 37853 101.7140 023.2908 0235078 024.6560 084.7708 14.83693133 88599
AUBIESAT
1 37854U 11061E 13169.14868451 .00003514 00000-0 26461-3 0 5253
2 37854 101.7178 024.0978 0234925 023.4187 092.5580 14.84410882 88605
HRBE
1 37855U 11061F 13168.59834808 .00003743 00000-0 28261-3 0 5244
2 37855 101.7180 023.0523 0236000 025.4653 008.3435 14.84068183 88517
RS-39
1 38051U 11062C 13169.36930036 .00008743 00000-0 28323-3 0 5468
2 38051 051.6355 204.8706 0010979 273.8308 178.9834 15.32746256 77968
E-STAR
1 38079U 12006C 13170.74731714 .00039161 00000-0 80528-3 0 2216
2 38079 069.4733 176.5716 0608527 133.9125 231.4465 14.47120442 70119
GOLIAT
1 38085U 12006J 13169.31926069 .00032607 30304-5 68522-3 0 1350
2 38085 069.4728 182.1776 0619821 136.9218 310.9943 14.44870749 69845
HORYU-2
1 38340U 12025D 13168.85179995 .00000763 00000-0 13274-3 0 5295
2 38340 098.2146 116.5096 0011393 251.5651 108.4315 14.70962564 58212
RS-40
1 38736U 12041D 13168.39468096 .00000010 00000-0 00000 0 0 2992
2 38736 082.4770 154.9948 0020913 330.1476 029.8412 12.42868585 40274
PROITERES
1 38756U 12047B 13169.40456695 .00000381 00000-0 65597-4 0 8821
2 38756 098.2527 246.4715 0013902 101.0932 259.1844 14.74236108 41570
RAIKO
1 38852U 98067CN 13171.80601006 .00184063 00000-0 88984-3 0 2647
2 38852 051.6367 069.5456 0007566 048.6971 311.5208 15.81756712 40445
FITSAT 1
1 38853U 98067CP 13171.72614886 .00484620 11287-3 92280-3 0 2726
2 38853 051.6388 062.9625 0001868 128.0296 232.0604 16.00074145 40572
TechEdSat
1 38854U 98067CQ 13124.93253577 .11592855 12481-4 94246-3 0 2908
2 38854 051.6449 297.0261 0010505 310.8629 049.0629 16.38844728 33294
F 1
1 38855U 98067CR 13129.77714356 .27424026 12535-4 30797-3 0 2871
2 38855 051.5085 272.4145 0008326 194.2908 166.5495 16.49710473 33949
WeWish
1 38856U 98067CS 13069.98095549 .16701328 12537-4 10063-2 0 2487
2 38856 051.6166 215.0521 0008325 316.0438 044.8765 16.41348316 24586
OSSI-1
1 39131U 13015B 13166.46692943 .00469165 87071-4 85875-3 0 48
2 39131 064.8771 194.8097 0130860 024.8474 329.0319 15.87140892 8872
BEESAT-3
1 39134U 13015E 13169.87824958 .00002085 00000-0 16496-3 0 1559
2 39134 064.8798 203.2713 0013398 204.0706 156.0315 15.00337632 9083
BEESAT-2
1 39136U 13015G 13169.87826419 .00001930 00000-0 15278-3 0 1516
2 39136 064.8804 203.2717 0013615 203.6641 156.4385 15.00311172 9084
